sat.trackr.live / text

‹ back to catalog

STARLINK-5822

NORAD 57064 · 2023-088S

PAYLOAD ACTIVE UNKNOWN

§ Identity

Operator
Country
US
Launch date
2023-06-22
Launch site
AFWTR
Launch vehicle
Mass (kg)
RCS (m²)

Purposes: comms

External: N2YO · Heavens-Above · Gunter

§ Orbital elements

Epoch: 2026-05-25T01:23:44.215296Z

Period
94.27 min
Inclination
43.0049°
Eccentricity
0.0001125
Mean motion
15.27576585 rev/d
Perigee alt
482.3 km
Apogee alt
483.8 km
Semi-major
6,861.2 km
B*
1.3553e-5
RAAN
39.2186°
Arg perigee
228.6959°
Mean anomaly
131.3796°
Rev number
16,103

§ Raw data

STARLINK-58221 57064U 23088S   26145.05815064  .00000111  00000+0  13553-4 0  99932 57064  43.0049  39.2186 0001125 228.6959 131.3796 15.27576585161035

JSON: /api/v1/satellites/57064 · /tle

For live sub-satellite position, see the globe view (requires WebGL).

§ Visibility from observer

Set your observer location to see the next 7 days of passes ≥ 10°. The values pass through the URL so the page stays shareable.

No JS? Fill the form by hand. The geolocation button needs JavaScript.